Weather Roundup
Issued by NWS

Home | Current Version | Previous Version | Text Only | Print | Product List | Glossary On
Versions: 1 2 3 4 5 6 7 8 9 10 11 12 13 14 15 16 17 18 19 20 21 22 23 24 25 26 27 28 29 30 31 32 33 34 35 36 37 38 39 40 41 42 43 44 45 46 47 48 49 50
017
NZUS93 KARX 161659
HRRWXR

CURRENT HOURLY OBSERVATIONS ACROSS
MUCH OF THE UPPER MISSISSIPPI VALLEY
NATIONAL WEATHER SERVICE LA CROSSE WI
1100 AM CST MON JAN 16 2017


...SOUTHEAST MINNESOTA...


CITY           SKY/WX    TMP DP  RH WIND       PRES   REMARKS
ROCHESTER      CLOUDY    28  26  92 E7        30.12F WCI  21
ROCHESTER/MAYO CLOUDY    29  25  82 E5        30.13F WCI  24
WINONA         CLOUDY    25  19  80 CALM      30.19F
AUSTIN         CLOUDY    32  28  86 E8        30.10F FOG     WCI  25
ALBERT LEA     CLOUDY    30  30 100 E7        30.09F FOG     WCI  23
DODGE CENTER   CLOUDY    28  25  86 CALM      30.11F
PRESTON        CLOUDY    29  27  91 NE6       30.13F FOG     WCI  23
OWATONNA       CLOUDY    28  23  80 E6        30.12F WCI  22
FARIBAULT        N/A     25  18  74 CALM      30.13F
$$

...ELSEWHERE IN MINNESOTA...


CITY           SKY/WX    TMP DP  RH WIND       PRES   REMARKS
MINNEAPOLIS    CLOUDY    24  16  71 VRB5      30.16F WCI  18
INTNL FALLS    CLOUDY    21  15  78 SW5       30.07S WCI  15
DULUTH         CLOUDY    26  21  81 S3        30.11R
RED WING       CLOUDY    19  14  79 SE5       30.17F WCI  13
REDWOOD FALLS  CLOUDY    27  20  75 CALM      30.11F
MANKATO        CLOUDY    29  23  78 E5        30.12F WCI  24
WORTHINGTON    CLOUDY    28  26  92 NE9       30.07S WCI  19
FAIRMONT       CLOUDY    30  27  88 NE8       30.09F FOG     WCI  22
$$

...SOUTHWEST WISCONSIN...


CITY           SKY/WX    TMP DP  RH WIND       PRES   REMARKS
PRAIRIE DU CHI MIX PCPN  32  29  90 CALM      30.16F
BOSCOBEL       CLOUDY    31  28  89 VRB6      30.18F FOG     WCI  25
LONE ROCK      CLOUDY    31  28  89 E8        30.19F FOG     WCI  23
PLATTEVILLE    CLOUDY    32  32 100 E8        30.16F WCI  25
FORT MC COY    MIX PCPN  28  23  81 CALM      30.20R
MAUSTON-NEW LI MIX PCPN  29  23  77 SE5       30.19S WCI  24
VIROQUA        CLOUDY    30  29  94 E7        30.15S WCI  23
WIS DELLS      MIX PCPN  29  25  84 E5        30.19F WCI  24
$$

...ELSEWHERE IN WISCONSIN...


CITY           SKY/WX    TMP DP  RH WIND       PRES   REMARKS
MILWAUKEE      LGT RAIN  34  30  85 SE7       30.23F FOG     WCI  28
MADISON        FRZ RAIN  31  29  92 E7        30.19F FOG     WCI  24
GREEN BAY      CLOUDY    28  21  75 CALM      30.24F
EAU CLAIRE     NOT AVBL
BLACK RVR FLS  CLOUDY    20  13  74 CALM      30.20S
MEDFORD        CLOUDY    17  12  82 CALM      30.17F
WAUSAU         CLOUDY    13   8  81 CALM      30.19F HAZE
WIS RAPIDS     CLOUDY    24  19  81 CALM      30.21F
MARSHFIELD     CLOUDY    18  12  77 NE6       30.17F HAZE    WCI  10
RICE LAKE      CLOUDY     9   6  86 CALM      30.19F FOG
$$

...NORTHEAST IOWA...


CITY           SKY/WX    TMP DP  RH WIND       PRES   REMARKS
WATERLOO       CLOUDY    32  30  92 E12       30.07F FOG     WCI  23
DUBUQUE        FRZ RAIN  32  31  96 E8        30.12F FOG     WCI  25
DECORAH        CLOUDY    30  30 100 E7G13     30.11F FOG     WCI  23
MASON CITY     CLOUDY    31  29  92 E10       30.08F FOG     WCI  22
CHARLES CITY   CLOUDY    32  32 100 E10       30.09F FOG     WCI  24
OELWEIN        MIX PCPN  32  32 100 E13       30.08F WCI  22
$$

...ELSEWHERE IN IOWA...


CITY           SKY/WX    TMP DP  RH WIND       PRES   REMARKS
DES MOINES     LGT RAIN  34  32  92 E9        30.00F FOG     WCI  27
IOWA CITY      RAIN      34  32  92 E8        30.11F FOG     WCI  27
FORT DODGE     CLOUDY    32  28  86 CALM      30.03F
MARSHALLTOWN   MIX PCPN  32  32 100 E14       30.03F FOG     WCI  22
CEDAR RAPIDS   FRZ RAIN  32  31  96 E12       30.07F VSB 1   WCI  23
$$

...NORTHERN ILLINOIS...


CITY           SKY/WX    TMP DP  RH WIND       PRES   REMARKS
CHICAGO-OHARE  LGT RAIN  34  32  92 SE7       30.21F VSB 1   WCI  28
CHICAGO-MIDWAY LGT RAIN  35  33  92 SE6       30.22F FOG     WCI  30
MOLINE         RAIN      35  32  88 E13       30.11F FOG     WCI  26
ROCKFORD       LGT RAIN  34  31  88 E6        30.19F FOG     WCI  29
PEORIA         RAIN      35  35 100 E8        30.13F VSB 1   WCI  29
$$

NOTE: "FAIR" INDICATES FEW OR NO CLOUDS BELOW 12,000 FEET WITH NO
SIGNIFICANT WEATHER AND/OR OBSTRUCTIONS TO VISIBILITY. WIND
SPEEDS ARE IN MILES-PER-HOUR.




USA.gov is the U.S. government's official web portal to all federal, state and local government web resources and services.